Angel Fire, NM

7:47 PM MST on December 03, 2016 (GMT -0700)
Angel Fire

Weather History for KAXX - August, 2014

Change the Weather History Date:

Thursday, August 14, 2014

  Actual Average (KSKX) Record (KSKX)
Temperature  
Mean Temperature 60 °F -  
Max Temperature 71 °F 79 °F 89 °F (2002)
Min Temperature 50 °F 47 °F 44 °F (1998)
Degree Days  
Heating Degree Days 4    
Growing Degree Days 10 (Base 50)    
Moisture  
Dew Point 50 °F    
Average Humidity 70    
Maximum Humidity 94    
Minimum Humidity 44    
Precipitation  
Precipitation 0.00 in - - ()
Sea Level Pressure  
Sea Level Pressure 30.37 in    
Wind  
Wind Speed 5 mph (SW)    
Max Wind Speed 16 mph    
Max Gust Speed 23 mph    
Visibility 10 miles    
Events      
Averages and records for this station are not official NWS values.
T = Trace of Precipitation, MM = Missing Value Source: NWS Daily Summary

Daily Weather History Graph

Daily Weather History Graph

Search for Another Location

Airport or City:

Trip Planner

Search our weather history database for the weather conditions in past years. The results will help you decide how hot, cold, wet, or windy it might be!

Date:

Astronomy

Aug. 14, 2014 Rise Set
Actual Time 6:18 AM MDT 7:52 PM MDT
Civil Twilight 5:50 AM MDT 8:20 PM MDT
Nautical Twilight 5:17 AM MDT 8:53 PM MDT
Astronomical Twilight 4:42 AM MDT 9:27 PM MDT
Moon 10:27 PM MDT (8/14) 10:48 AM MDT (8/14)
Length of Visible Light 14h 29m
Length of Day
13h 34m
Waning Gibbous, 78% of the Moon is Illuminated
Aug 14
Waning Gibbous
Aug 17
Last Quarter
Aug 25
New
Sep 2
First Quarter
Sep 8
Full

Hourly Weather History & Observations

Time (MDT) Temp. Dew Point Humidity Pressure Visibility Wind Dir Wind Speed Gust Speed Precip Events Conditions
12:15 AM 51.8 °F 48.2 °F 88% 30.44 in 10.0 mi Calm Calm - N/A   Clear
12:37 AM 51.8 °F 48.2 °F 88% 30.43 in 10.0 mi WSW 3.5 mph - N/A   Clear
12:57 AM 51.8 °F 48.2 °F 88% 30.43 in 10.0 mi Calm Calm - N/A   Clear
1:15 AM 51.8 °F 48.2 °F 88% 30.42 in 10.0 mi Calm Calm - N/A   Clear
1:35 AM 50.0 °F 48.2 °F 94% 30.41 in 10.0 mi Calm Calm - N/A   Clear
1:55 AM 50.0 °F 48.2 °F 94% 30.41 in 10.0 mi Calm Calm - N/A   Clear
2:17 AM 50.0 °F 48.2 °F 94% 30.40 in 10.0 mi Calm Calm - N/A   Clear
2:35 AM 51.8 °F 50.0 °F 94% 30.40 in 10.0 mi SSE 4.6 mph - N/A   Clear
2:56 AM 53.6 °F 50.0 °F 88% 30.40 in 10.0 mi SSE 4.6 mph - N/A   Clear
3:15 AM 55.4 °F 50.0 °F 82% 30.40 in 10.0 mi SSE 5.8 mph - N/A   Scattered Clouds
3:35 AM 55.4 °F 50.0 °F 82% 30.40 in 10.0 mi South 4.6 mph - N/A   Scattered Clouds
4:15 AM 55.4 °F 50.0 °F 82% 30.39 in 10.0 mi SSE 4.6 mph - N/A   Scattered Clouds
4:35 AM 55.4 °F 50.0 °F 82% 30.38 in 10.0 mi Calm Calm - N/A   Clear
4:55 AM 55.4 °F 50.0 °F 82% 30.38 in 10.0 mi Calm Calm - N/A   Scattered Clouds
5:16 AM 55.4 °F 50.0 °F 82% 30.39 in 10.0 mi South 4.6 mph - N/A   Scattered Clouds
5:35 AM 55.4 °F 50.0 °F 82% 30.39 in 10.0 mi Calm Calm - N/A   Mostly Cloudy
5:55 AM 55.4 °F 51.8 °F 88% 30.39 in 10.0 mi ESE 3.5 mph - N/A   Mostly Cloudy
6:15 AM 57.2 °F 50.0 °F 77% 30.40 in 10.0 mi Calm Calm - N/A   Mostly Cloudy
6:35 AM 57.2 °F 50.0 °F 77% 30.40 in 10.0 mi SE 3.5 mph - N/A   Overcast
6:55 AM 57.2 °F 50.0 °F 77% 30.40 in 10.0 mi NE 5.8 mph - N/A   Overcast
7:15 AM 57.2 °F 50.0 °F 77% 30.40 in 10.0 mi SE 8.1 mph - N/A   Overcast
7:35 AM 57.2 °F 51.8 °F 82% 30.40 in 10.0 mi NE 4.6 mph - N/A   Overcast
7:55 AM 57.2 °F 50.0 °F 77% 30.41 in 10.0 mi North 3.5 mph - N/A   Overcast
8:15 AM 57.2 °F 50.0 °F 77% 30.41 in 10.0 mi West 5.8 mph - N/A   Mostly Cloudy
8:35 AM 59.0 °F 50.0 °F 72% 30.41 in 10.0 mi West 6.9 mph 18.4 mph N/A   Scattered Clouds
8:55 AM 59.0 °F 50.0 °F 72% 30.41 in 10.0 mi WSW 10.4 mph 17.3 mph N/A   Scattered Clouds
9:17 AM 59.0 °F 48.2 °F 67% 30.41 in 10.0 mi WSW 11.5 mph - N/A   Mostly Cloudy
9:35 AM 59.9 °F 49.8 °F 69% 30.41 in 10.0 mi West 6.9 mph - N/A   Mostly Cloudy
9:55 AM 61.0 °F 50.7 °F 69% 30.41 in 10.0 mi West 10.4 mph - N/A   Scattered Clouds
10:15 AM 61.2 °F 50.4 °F 68% 30.41 in 10.0 mi WSW 11.5 mph 19.6 mph N/A   Scattered Clouds
10:35 AM 62.2 °F 48.9 °F 62% 30.41 in 10.0 mi SW 10.4 mph 20.7 mph N/A   Scattered Clouds
10:55 AM 61.0 °F 49.1 °F 65% 30.40 in 10.0 mi West 9.2 mph - N/A   Mostly Cloudy
11:15 AM 62.1 °F 48.7 °F 62% 30.40 in 10.0 mi West 6.9 mph 17.3 mph N/A   Mostly Cloudy
11:35 AM 62.8 °F 49.3 °F 61% 30.40 in 10.0 mi West 16.1 mph 20.7 mph N/A   Mostly Cloudy
11:55 AM 65.3 °F 50.9 °F 60% 30.40 in 10.0 mi WSW 15.0 mph 18.4 mph N/A   Mostly Cloudy
12:15 PM 63.7 °F 49.8 °F 61% 30.39 in 10.0 mi WNW 5.8 mph - N/A   Mostly Cloudy
12:35 PM 64.0 °F 49.5 °F 59% 30.39 in 10.0 mi Calm Calm - N/A   Overcast
12:55 PM 65.7 °F 49.3 °F 55% 30.39 in 10.0 mi West 10.4 mph 19.6 mph N/A   Overcast
1:15 PM 66.2 °F 50.7 °F 57% 30.38 in 10.0 mi West 9.2 mph 20.7 mph N/A   Mostly Cloudy
1:35 PM 66.2 °F 49.3 °F 54% 30.38 in 10.0 mi WSW 11.5 mph 16.1 mph N/A   Mostly Cloudy
1:55 PM 67.6 °F 49.6 °F 52% 30.37 in 10.0 mi West 8.1 mph 18.4 mph N/A   Mostly Cloudy
2:15 PM 68.0 °F 48.2 °F 49% 30.37 in 10.0 mi West 9.2 mph 16.1 mph N/A   Mostly Cloudy
2:35 PM 67.3 °F 48.9 °F 52% 30.36 in 10.0 mi WSW 9.2 mph - N/A   Mostly Cloudy
2:37 PM 68.0 °F 48.2 °F 49% 30.36 in 10.0 mi West 11.5 mph 16.1 mph N/A   Scattered Clouds
2:55 PM 69.4 °F 48.7 °F 48% 30.35 in 10.0 mi WSW 9.2 mph - N/A   Scattered Clouds
3:15 PM 70.5 °F 49.6 °F 47% 30.33 in 10.0 mi West 16.1 mph 19.6 mph N/A   Scattered Clouds
3:35 PM 68.9 °F 49.5 °F 50% 30.33 in 10.0 mi West 11.5 mph 18.4 mph N/A   Scattered Clouds
3:55 PM 67.6 °F 49.1 °F 51% 30.33 in 10.0 mi WSW 6.9 mph - N/A   Clear
4:15 PM 66.7 °F 48.6 °F 52% 30.33 in 10.0 mi SW 4.6 mph - N/A   Scattered Clouds
4:35 PM 69.8 °F 48.4 °F 46% 30.32 in 10.0 mi South 6.9 mph - N/A   Scattered Clouds
4:55 PM 68.5 °F 48.7 °F 49% 30.32 in 10.0 mi WSW 16.1 mph 23.0 mph N/A   Mostly Cloudy
5:15 PM 71.2 °F 48.6 °F 45% 30.31 in 10.0 mi West 11.5 mph 17.3 mph N/A   Mostly Cloudy
5:35 PM 69.4 °F 46.4 °F 44% 30.32 in 10.0 mi WSW 11.5 mph 21.9 mph N/A   Scattered Clouds
5:55 PM 67.1 °F 46.9 °F 48% 30.31 in 10.0 mi WSW 11.5 mph - N/A   Scattered Clouds
6:15 PM 66.7 °F 48.0 °F 51% 30.30 in 10.0 mi WSW 11.5 mph - N/A   Mostly Cloudy
6:35 PM 65.1 °F 49.8 °F 58% 30.32 in 10.0 mi SSW 8.1 mph 20.7 mph N/A   Light Drizzle
6:55 PM 64.8 °F 51.1 °F 61% 30.32 in 10.0 mi South 8.1 mph - N/A   Mostly Cloudy
7:15 PM 63.9 °F 51.6 °F 64% 30.32 in 10.0 mi SE 6.9 mph - N/A   Overcast
7:35 PM 63.5 °F 52.2 °F 67% 30.32 in 10.0 mi SSE 6.9 mph - N/A   Overcast
7:55 PM 60.4 °F 52.9 °F 76% 30.32 in 10.0 mi SSW 5.8 mph - N/A   Overcast
8:15 PM 59.4 °F 52.2 °F 77% 30.33 in 10.0 mi West 3.5 mph - N/A   Overcast
8:35 PM 60.1 °F 52.3 °F 76% 30.33 in 10.0 mi SW 3.5 mph - N/A   Overcast
8:55 PM 57.2 °F 52.0 °F 83% 30.34 in 10.0 mi WSW 9.2 mph - N/A   Mostly Cloudy
9:15 PM 59.4 °F 51.3 °F 75% 30.35 in 10.0 mi West 8.1 mph - N/A   Light Drizzle
9:35 PM 59.0 °F 51.6 °F 76% 30.36 in 10.0 mi Calm Calm - N/A   Overcast
9:55 PM 60.1 °F 50.5 °F 71% 30.37 in 10.0 mi Calm Calm - N/A   Mostly Cloudy
10:15 PM 58.5 °F 50.9 °F 76% 30.37 in 10.0 mi SSW 4.6 mph - N/A   Scattered Clouds
10:35 PM 57.4 °F 50.4 °F 77% 30.37 in 10.0 mi ESE 3.5 mph - N/A   Mostly Cloudy
10:55 PM 57.2 °F 50.4 °F 78% 30.37 in 10.0 mi ESE 3.5 mph - N/A   Mostly Cloudy
11:15 PM 56.5 °F 50.0 °F 79% 30.37 in 10.0 mi Calm Calm - N/A   Scattered Clouds
11:35 PM 55.6 °F 50.0 °F 81% 30.37 in 10.0 mi Calm Calm - N/A   Mostly Cloudy
11:55 PM 55.6 °F 50.0 °F 81% 30.37 in 10.0 mi ESE 3.5 mph - N/A   Overcast